Weather observations for the past three days for
Burlington Regional Airport
Imperial (Metric)
Date Time (cdt) Wind (mph) Vis. (mi.) Weather Sky Cond. Temperature (ºF) Relative Humidity Wind Chill (°F) Heat Index (°F) Pressure Precipitation (in)
Air Dwpt 6 hour altimeter (in) sea level (mb) 1 hr 3 hr 6 hr
Max. Min.
15 08:53 SW 7 10.00 Fair CLR 82 78.1 88% 91 29.85 1010.2
15 07:53 SW 8 10.00 Fair CLR 78.1 75.9 93% 81 29.85 1010.1
15 06:53 S 6 10.00 Fair CLR 77 75.9 81 73.9 96% 78 29.85 1010.2
15 05:53 SW 7 8.00 Fair CLR 75 73.9 96% 73 29.87 1010.6
15 04:53 S 5 8.00 Fair CLR 75 75 100% 72 29.87 1010.8
15 03:53 SW 5 10.00 Fair CLR 75.9 75 97% 75 29.87 1010.9
15 02:53 Calm 10.00 A Few Clouds FEW017 78.1 75.9 93% 81 29.88 1011.1
15 01:53 SW 6 10.00 Fair CLR 79 77 94% 83 29.88 1011.0
15 00:53 W 6 10.00 Mostly Cloudy SCT044 BKN055 81 75.9 87.1 81 85% 87 29.88 1011.1
14 23:53 SW 7 10.00 Fair CLR 81 75.9 85% 87 29.87 1010.8
14 22:53 SW 13 10.00 Fair CLR 82.9 75.9 79% 91 29.83 1009.4
14 21:53 SW 12 10.00 A Few Clouds FEW045 82 75 79% 89 29.85 1010.1
14 20:53 SW 12 10.00 Mostly Cloudy SCT047 BKN060 82.9 75.9 79% 91 29.85 1010.0
14 19:53 SW 12 10.00 Mostly Cloudy SCT049 BKN060 86 75 70% 95 29.86 1010.3
14 18:53 SW 13 G 22 10.00 Fair CLR 87.1 75.9 89.1 86 70% 98 29.86 1010.6
14 17:53 SW 8 9.00 Fair CLR 88 79 75% 103 29.86 1010.6
14 16:53 S 14 G 24 10.00 Fair CLR 89.1 78.1 70% 103 29.86 1010.6
14 15:53 SW 15 G 25 9.00 Fair CLR 89.1 78.1 70% 103 29.88 1011.0
14 14:53 SW 15 10.00 Fair CLR 89.1 78.1 70% 103 29.89 1011.6
14 13:53 S 14 G 22 10.00 Fair CLR 88 78.1 73% 102 29.91 1012.0
14 12:53 S 16 8.00 Fair CLR 87.1 77 87.1 75.9 72% 99 29.93 1012.9
14 10:53 SE 9 10.00 Fair CLR 82 73.9 77% 88 29.99 1014.9
14 09:53 NE 6 10.00 Fair CLR 79 73.9 85% 83 30.02 1016.1
14 08:53 SW 6 10.00 Fair CLR 77 73 88% 78 30 1015.3
14 07:53 SW 9 10.00 A Few Clouds FEW110 77 73 88% 78 30 1015.1
14 06:53 S 10 10.00 Mostly Cloudy BKN100 75.9 73 75.9 73.9 91% 76 29.97 1014.3
14 05:53 S 9 10.00 Partly Cloudy SCT090 75 73 94% 73 29.98 1014.4
14 04:53 S 12 10.00 Fair CLR 75 72 90% 74 29.97 1014.1
14 03:53 S 9 10.00 Fair CLR 73.9 72 94% 29.97 1014.1
14 02:53 S 8 10.00 Fair CLR 73.9 71.1 91% 29.98 1014.7
14 01:53 S 8 10.00 Fair CLR 75 71.1 88% 75 30.01 1015.6
14 00:53 S 9 10.00 Fair CLR 75 71.1 84 75 88% 75 30.03 1016.2
13 23:53 S 10 10.00 Fair CLR 75.9 71.1 85% 76 30.04 1016.5
13 22:53 S 10 10.00 Fair CLR 78.1 71.1 79% 80 30.03 1016.3
13 21:53 S 10 10.00 Fair CLR 79 72 79% 82 30.03 1016.3
13 20:53 S 9 10.00 Fair CLR 80.1 72 76% 84 30.02 1015.9
13 19:53 S 8 10.00 Fair CLR 82 73.9 77% 88 30.03 1016.3
13 18:53 S 7 10.00 Fair CLR 84 73 87.1 84 70% 90 30.02 1016.0
13 17:53 S 10 10.00 Fair CLR 84.9 73.9 70% 92 30 1015.5
13 16:53 S 12 10.00 Fair CLR 84.9 75 72% 93 30.03 1016.4
13 15:53 SW 12 G 21 9.00 Fair CLR 86 73.9 67% 94 30.05 1016.8
13 14:53 S 13 G 22 9.00 Fair CLR 86 75.9 72% 96 30.06 1017.3
13 13:53 S 12 10.00 Partly Cloudy FEW025 SCT031 84.9 77 77% 95 30.08 1017.8
13 12:53 SW 10 8.00 Partly Cloudy SCT065 84 75.9 84.9 73 77% 93 30.1 1018.7
13 11:53 S 12 10.00 Fair CLR 84 75 74% 92 30.1 1018.5
13 10:53 S 12 10.00 Mostly Cloudy BKN055 82 75 79% 89 30.1 1018.8
13 09:53 S 10 10.00 Mostly Cloudy BKN060 80.1 73.9 82% 85 30.1 1018.7
13 08:53 S 9 10.00 A Few Clouds FEW060 78.1 72 82% 80 30.11 1018.9
13 07:53 S 6 10.00 Fair CLR 75.9 72 88% 76 30.1 1018.6
13 05:53 SE 5 10.00 A Few Clouds FEW055 72 70 94% 30.1 1018.7
13 04:53 SE 5 10.00 A Few Clouds FEW060 71.1 70 96% 30.1 1018.6
13 03:53 SE 6 10.00 Fair CLR 73 70 90% 30.09 1018.4
13 02:53 S 5 10.00 Fair CLR 73 70 90% 30.09 1018.2
13 01:53 SE 7 10.00 Fair CLR 73.9 70 88% 30.09 1018.5
13 00:53 SE 6 10.00 Fair CLR 75 70 82.9 73.9 84% 75 30.1 1018.7
12 23:53 SE 6 10.00 Fair CLR 75 70 84% 75 30.1 1018.6
12 22:53 E 6 10.00 A Few Clouds FEW038 75.9 70 82% 77 30.1 1018.6
12 21:53 SE 5 10.00 Fair CLR 77 71.1 82% 79 30.09 1018.6
12 20:53 SE 5 10.00 Fair CLR 78.1 71.1 79% 80 30.08 1018.2
12 19:53 Calm 10.00 Fair CLR 81 71.1 72% 85 30.08 1018.1
12 18:53 SE 3 10.00 Fair CLR 82.9 70 84 81 65% 87 30.07 1017.7
12 17:53 S 7 10.00 A Few Clouds FEW080 84 70 63% 88 30.07 1017.8
12 16:53 SE 6 10.00 Fair CLR 84 70 63% 88 30.07 1017.8
12 15:53 S 6 10.00 Fair CLR 84 69.1 61% 88 30.07 1017.9
12 14:53 E 6 10.00 Fair CLR 84 69.1 61% 88 30.08 1018.2
12 13:53 E 9 10.00 Fair CLR 82.9 68 61% 86 30.09 1018.4
12 12:53 E 9 10.00 Fair CLR 81 69.1 82 68 67% 84 30.11 1019.2
12 11:53 SE 7 10.00 Fair CLR 79 69.1 72% 82 30.13 1019.8
12 10:53 SE 8 10.00 Fair CLR 78.1 69.1 74% 80 30.12 1019.5
12 09:53 E 6 10.00 Fair CLR 75 68 79% 76 30.13 1019.8
Date Time (cdt) Wind (mph) Vis. (mi.) Weather Sky Cond. Air Dwpt Max. Min. Relative Humidity Wind Chill (°F) Heat Index (°F) altimeter (in) sea level (mb) 1 hr 3 hr 6 hr
6 hour
Temperature (ºF) Pressure Precipitation (in)